Home > Weather > Hommersåk > Past weeks

Flag for Norway Weather for the Past 2 Weeks in Hommersåk, Norway

Now
34 °F

Passing clouds.


Feels Like: 29 °F
Forecast: 27 / 33 °F
Wind: 6 mph from South

Location: Stavanger / Sola

Current Time: Feb 11, 2016 at 7:09:47 PM

Latest Report: Feb 11, 2016 at 6:20 PM


Visibility: N/A

Pressure: 29.59 "Hg

Humidity: 60%

Dew point: 21 °F

Location of HommersåkLocation

Historic Weather in Hommersåk — Graph

°F

Hommersåk Temperature Yesterday

Maximum temperature yesterday: 45 °F (at 2:50 PM)
Minimum temperature yesterday: 34 °F (at 9:20 PM)
Average temperature yesterday: 40 °F

High & Low Weather Summary for the Past Weeks

 TemperatureHumidityPressure
High50 °F (Jan 29, 12:50 PM)100% (Jan 29, 1:50 AM)30.04 "Hg (Jan 29, 1:50 AM)
Low30 °F (Feb 4, 9:20 PM)56% (Jan 31, 10:20 PM)28.56 "Hg (Feb 8, 8:50 AM)
Average41 °F83%29.26 "Hg
* Reported Jan 27 5:20 PM — Feb 11 5:50 PM, Hommersåk, Weather by CustomWeather, © 2016

Note: Actual official high and low records may vary slightly from our data, if they occured in-between our weather recording intervals... More about our weather records

Advertising

Hommersåk Weather History for the Previous 24 Hours

 ConditionsComfort  
Time TempWeatherWind HumidityBarometerVisibility
5:50 PM
Thu, Feb 11
36 °FPassing clouds.5 mph56%29.59 "HgN/A
5:20 PM37 °FScattered clouds.6 mph60%29.56 "HgN/A
4:50 PM37 °FScattered clouds.3 mph75%29.56 "HgN/A
4:20 PM39 °FScattered clouds.3 mph70%29.56 "HgN/A
3:50 PM41 °FScattered clouds.5 mph66%29.53 "HgN/A
3:20 PM41 °FScattered clouds.2 mph66%29.53 "HgN/A
2:50 PM41 °FScattered clouds.3 mph66%29.53 "HgN/A
2:20 PM43 °FScattered clouds.2 mph66%29.53 "HgN/A
1:50 PM46 °FScattered clouds.1 mph57%29.53 "HgN/A
1:20 PM43 °FScattered clouds.1 mph61%29.50 "HgN/A
12:50 PM39 °FScattered clouds.No wind75%29.50 "HgN/A
12:20 PM39 °FPartly sunny.1 mph75%29.50 "HgN/A
11:50 AM41 °FBroken clouds.1 mph76%29.50 "HgN/A
11:20 AM39 °FScattered clouds.2 mph75%29.47 "HgN/A
10:50 AM41 °FScattered clouds.3 mph70%29.47 "HgN/A
10:20 AM37 °FBroken clouds.3 mph75%29.47 "HgN/A
9:50 AM37 °FBroken clouds.2 mph75%29.45 "HgN/A
9:20 AM36 °FPartly sunny.5 mph81%29.45 "HgN/A
8:50 AM36 °FBroken clouds.3 mph81%29.42 "HgN/A
8:20 AM36 °FPassing clouds.5 mph81%29.42 "HgN/A
7:50 AM37 °FPassing clouds.5 mph75%29.42 "HgN/A
7:20 AM37 °FPassing clouds.6 mph75%29.39 "HgN/A
6:50 AM36 °FPassing clouds.6 mph81%29.39 "HgN/A
6:20 AM36 °FPassing clouds.2 mph81%29.39 "HgN/A
5:50 AM36 °FPassing clouds.6 mph87%29.36 "HgN/A
4:50 AM36 °FPassing clouds.6 mph87%29.36 "HgN/A
3:50 AM34 °FPassing clouds.5 mph100%29.36 "HgN/A
2:50 AM34 °FPassing clouds.2 mph93%29.33 "HgN/A
1:50 AM34 °FPassing clouds.3 mph93%29.33 "HgN/A
12:50 AM36 °FPassing clouds.1 mph93%29.30 "HgN/A
11:50 PM
Wed, Feb 10
34 °FPartly cloudy.1 mph100%29.30 "HgN/A
11:20 PM34 °FPartly cloudy.3 mph93%29.27 "HgN/A
10:50 PM34 °FPartly cloudy.1 mph93%29.27 "HgN/A
9:50 PM34 °FPassing clouds.No wind93%29.24 "HgN/A
9:20 PM34 °FPassing clouds.No wind93%29.24 "HgN/A
8:50 PM36 °FPassing clouds.No wind87%29.24 "HgN/A
8:20 PM37 °FPassing clouds.No wind87%29.21 "HgN/A
7:50 PM39 °FPassing clouds.1 mph87%29.21 "HgN/A
7:20 PM39 °FPassing clouds.1 mph87%29.21 "HgN/A
Weather by CustomWeather, © 2016

See weather overviewHow to use our weather pages